TimeCDT,TemperatureF,Dew PointF,Humidity,Sea Level PressureIn,VisibilityMPH,Wind Direction,Wind SpeedMPH,Gust SpeedMPH,PrecipitationIn,Events,Conditions,WindDirDegrees,DateUTC
12:53 AM,73.0,71.1,93,29.97,10.0,South,5.8,-,N/A,,Clear,170,2012-10-10 05:53:00
1:53 AM,73.0,70.0,90,29.97,8.0,South,5.8,-,N/A,,Clear,180,2012-10-10 06:53:00
2:53 AM,73.0,71.1,93,29.95,6.0,South,6.9,-,N/A,,Clear,180,2012-10-10 07:53:00
3:53 AM,72.0,71.1,97,29.94,4.0,South,5.8,-,N/A,,Clear,170,2012-10-10 08:53:00
4:53 AM,72.0,71.1,97,29.94,3.0,South,5.8,-,N/A,,Partly Cloudy,170,2012-10-10 09:53:00
5:06 AM,71.6,71.6,100,29.95,3.0,South,4.6,-,N/A,,Mostly Cloudy,170,2012-10-10 10:06:00
5:20 AM,71.6,71.6,100,29.95,2.0,Calm,Calm,-,N/A,,Overcast,0,2012-10-10 10:20:00
5:27 AM,71.6,71.6,100,29.96,0.8,Calm,Calm,-,N/A,,Overcast,0,2012-10-10 10:27:00
5:36 AM,71.6,71.6,100,29.96,0.5,Calm,Calm,-,N/A,Fog,Fog,0,2012-10-10 10:36:00
5:53 AM,72.0,71.1,97,29.96,0.5,Calm,Calm,-,N/A,Fog,Fog,0,2012-10-10 10:53:00
6:23 AM,73.4,71.6,94,29.99,0.2,North,4.6,-,N/A,Fog,Fog,10,2012-10-10 11:23:00
6:53 AM,73.0,72.0,96,29.99,0.5,North,4.6,-,N/A,Fog,Fog,10,2012-10-10 11:53:00
7:11 AM,73.4,73.4,100,30.00,1.0,North,3.5,-,N/A,,Mist,10,2012-10-10 12:11:00
7:27 AM,73.4,73.4,100,30.01,2.5,Calm,Calm,-,N/A,,Overcast,0,2012-10-10 12:27:00
7:34 AM,73.4,73.4,100,30.01,3.0,North,3.5,-,N/A,,Overcast,360,2012-10-10 12:34:00
7:53 AM,75.0,73.9,96,30.01,3.0,Calm,Calm,-,N/A,,Overcast,0,2012-10-10 12:53:00
8:00 AM,75.2,75.2,100,30.02,3.0,Calm,Calm,-,N/A,,Overcast,0,2012-10-10 13:00:00
8:53 AM,77.0,75.0,94,30.04,7.0,East,3.5,-,N/A,,Overcast,80,2012-10-10 13:53:00
9:42 AM,78.8,75.2,89,30.06,10.0,East,4.6,-,N/A,,Overcast,80,2012-10-10 14:42:00
9:53 AM,80.1,75.0,85,30.06,10.0,ESE,5.8,-,N/A,,Overcast,110,2012-10-10 14:53:00
10:23 AM,80.6,75.2,84,30.07,10.0,Calm,Calm,-,N/A,,Overcast,0,2012-10-10 15:23:00
10:30 AM,80.6,75.2,84,30.07,10.0,Calm,Calm,-,N/A,,Mostly Cloudy,0,2012-10-10 15:30:00
10:44 AM,82.4,75.2,79,30.07,10.0,Variable,4.6,-,N/A,,Mostly Cloudy,0,2012-10-10 15:44:00
10:53 AM,82.9,75.0,77,30.06,10.0,SSW,5.8,-,N/A,,Mostly Cloudy,200,2012-10-10 15:53:00
11:45 AM,87.8,73.4,62,30.06,10.0,SE,8.1,-,N/A,,Scattered Clouds,140,2012-10-10 16:45:00
11:53 AM,87.1,72.0,61,30.05,10.0,SE,8.1,-,N/A,,Scattered Clouds,130,2012-10-10 16:53:00
12:53 PM,90.0,71.1,54,30.02,10.0,Variable,6.9,-,N/A,,Mostly Cloudy,0,2012-10-10 17:53:00
1:53 PM,93.0,70.0,47,29.99,10.0,SSE,8.1,-,0.00,,Mostly Cloudy,150,2012-10-10 18:53:00
2:53 PM,91.0,69.1,48,29.95,10.0,ESE,8.1,-,N/A,,Mostly Cloudy,120,2012-10-10 19:53:00
3:53 PM,93.0,70.0,47,29.94,10.0,SE,9.2,-,N/A,,Mostly Cloudy,140,2012-10-10 20:53:00
4:53 PM,91.9,70.0,48,29.93,10.0,East,12.7,21.9,N/A,,Mostly Cloudy,100,2012-10-10 21:53:00
5:53 PM,89.1,72.0,57,29.94,10.0,ESE,16.1,24.2,N/A,,Clear,110,2012-10-10 22:53:00
6:53 PM,84.9,72.0,65,29.97,10.0,ESE,17.3,26.5,N/A,,Partly Cloudy,120,2012-10-10 23:53:00
7:53 PM,81.0,73.9,79,30.01,10.0,ESE,16.1,-,N/A,,Scattered Clouds,110,2012-10-11 00:53:00
8:53 PM,80.1,72.0,76,30.02,10.0,ESE,9.2,-,N/A,,Scattered Clouds,110,2012-10-11 01:53:00
9:53 PM,80.1,73.0,79,30.04,10.0,ESE,11.5,-,N/A,,Scattered Clouds,120,2012-10-11 02:53:00
10:53 PM,80.1,73.9,81,30.04,10.0,SE,12.7,-,N/A,,Partly Cloudy,130,2012-10-11 03:53:00
11:53 PM,79.0,75.0,88,30.04,10.0,SE,9.2,-,N/A,,Clear,130,2012-10-11 04:53:00